Home > Weather > Bahía Blanca > Past weeks

Flag for Argentina Past Weather in Bahía Blanca, Buenos Aires, Argentina — Yesterday and Last 2 Weeks

Now
46 °F

Clear.


Feels Like: 46 °F
Forecast: 56 / 78 °F
Wind: No wind

Location: Mar Del Plata Aerodrome

Current Time: Aug 25, 2016 at 5:20:05 AM

Latest Report: Aug 25, 2016 at 4:00 AM


Visibility: 4 mi

Pressure: 29.98 "Hg

Humidity: 82%

Dew Point: 41 °F

Location of Bahía BlancaLocation

Past Weather in Bahía Blanca — Graph

°F

Bahía Blanca Temperature Yesterday

Maximum temperature yesterday: 68 °F (at 2:00 PM)
Minimum temperature yesterday: 41 °F (at 6:00 AM)
Average temperature yesterday: 55 °F

High & Low Weather Summary for the Past Weeks

 TemperatureHumidityPressure
High70 °F (Aug 23, 2:00 PM)94% (Aug 12, 1:00 AM)30.51 "Hg (Aug 12, 1:00 AM)
Low28 °F (Aug 21, 5:00 AM)31% (Aug 18, 4:00 PM)29.53 "Hg (Aug 16, 4:00 PM)
Average50 °F70%29.97 "Hg
* Reported Aug 10 5:00 AM — Aug 25 4:00 AM, Bahía Blanca, Weather by CustomWeather, © 2016

Note: Actual official high and low records may vary slightly from our data, if they occured in-between our weather recording intervals... More about our weather records

Advertising

Bahía Blanca Weather History for the Previous 24 Hours

Scroll right to see more
 ConditionsComfort  
Time TempWeatherWind HumidityBarometerVisibility
4:00 AM
Thu, Aug 25
46 °FClear.No wind82%29.98 "Hg4 mi
3:00 AM46 °FClear.No wind87%29.98 "Hg4 mi
2:00 AM48 °FClear.No wind82%30.01 "Hg4 mi
1:00 AM48 °FClear.7 mph82%30.01 "Hg4 mi
12:00 AM50 °FClear.6 mph82%30.01 "Hg4 mi
11:00 PM
Wed, Aug 24
54 °FClear.6 mph77%30.01 "Hg4 mi
10:00 PM54 °FClear.7 mph82%30.01 "Hg4 mi
9:00 PM55 °FClear.9 mph77%30.01 "Hg4 mi
8:00 PM54 °FClear.8 mph77%29.98 "Hg4 mi
7:00 PM63 °FClear.6 mph59%29.98 "Hg5 mi
6:00 PM66 °FClear.6 mph52%29.98 "Hg10 mi
5:00 PM68 °FSunny.12 mph46%29.98 "Hg10 mi
4:00 PM68 °FSunny.16 mph43%29.98 "Hg10 mi
3:00 PM68 °FSunny.14 mph43%29.98 "Hg10 mi
2:00 PM68 °FSunny.14 mph46%30.01 "Hg10 mi
1:00 PM66 °FSunny.16 mph49%30.01 "Hg10 mi
12:00 PM63 °FSunny.13 mph56%30.04 "Hg10 mi
11:00 AM57 °FSunny.14 mph63%30.04 "Hg10 mi
10:00 AM54 °FSunny.13 mph67%30.07 "Hg10 mi
9:00 AM50 °FSunny.12 mph76%30.07 "Hg10 mi
8:00 AM43 °FClear.No wind81%30.07 "Hg5 mi
7:00 AM45 °FSunny.9 mph81%30.04 "Hg10 mi
6:00 AM41 °FClear.5 mph87%30.01 "Hg10 mi
5:00 AM43 °FClear.8 mph81%30.01 "Hg10 mi
Weather by CustomWeather, © 2016

See weather overviewHow to use our weather pages